Wind_Speed
42 43 44 44 45 45 46 47 47 47 46 47 47 49 49 50 51 51 51 51 51 50 50 50 49 50 50 50 51 51 49 48 47 47 47 47 48 49 50 50 50 49 48
43 44 45 44 44 45 45 45 45 46 46 46 46 46 47 48 50 51 50 49 49 48 48 48 47 48 49 49 48 49 47 46 47 47 46 46 46 47 47 48 47 47 47
43 44 44 44 44 44 45 45 45 45 45 45 44 45 46 47 47 47 47 47 47 47 47 45 44 46 46 46 47 47 46 45 45 46 45 45 44 45 45 46 47 48 46
44 44 43 43 43 44 43 43 43 43 43 44 43 44 45 44 44 43 44 45 44 43 44 43 43 44 44 44 45 46 45 43 43 43 43 43 43 43 43 44 45 45 45
43 43 42 42 42 42 42 42 43 43 43 43 42 42 42 42 42 42 42 42 40 39 40 40 40 41 41 42 44 44 44 42 42 42 42 41 41 41 41 42 43 43 43
42 42 41 41 42 42 42 42 43 42 42 42 41 40 40 40 40 39 39 38 37 36 37 38 38 39 40 41 43 43 43 41 40 41 41 41 40 40 40 40 40 41 41
42 41 41 41 42 42 42 43 42 41 41 40 39 38 37 37 36 36 35 35 34 34 34 35 35 36 38 40 40 40 40 40 39 40 39 39 39 39 38 37 38 39 38
41 40 41 41 41 42 41 41 40 39 39 38 37 36 35 34 32 32 32 31 31 31 32 33 33 33 35 36 37 37 37 38 37 37 37 38 38 38 38 36 36 36 36
40 40 40 41 41 40 40 39 38 37 36 35 33 32 31 29 28 28 27 27 28 28 29 30 29 31 33 35 35 35 36 37 36 35 34 35 35 35 36 35 35 35 33
38 39 39 40 39 39 38 37 35 34 33 32 32 30 27 25 24 24 25 25 24 25 26 27 26 28 30 32 34 35 35 36 35 34 34 33 34 34 34 33 33 33 32
37 37 38 38 37 37 36 35 33 33 31 30 29 26 24 22 21 21 22 22 21 22 24 24 24 27 29 30 31 32 32 34 34 33 32 32 32 32 32 32 32 32 32
36 36 36 35 35 34 34 32 32 31 29 27 25 23 22 22 20 19 18 19 19 20 21 22 23 24 26 27 28 29 30 32 31 31 31 31 31 31 32 32 31 31 31
34 34 33 32 32 31 31 30 30 29 26 24 22 21 20 19 18 16 15 16 17 17 18 19 19 21 23 24 25 26 28 29 30 30 30 29 29 29 30 30 30 29 29
33 32 32 31 31 30 29 29 28 26 24 22 21 19 16 14 13 12 11 11 12 13 15 16 16 18 20 20 21 23 25 26 27 28 28 28 28 27 27 28 28 28 28
31 31 30 30 29 29 28 27 25 24 23 22 19 17 14 12 12 11 10 10 9 11 14 15 16 18 19 20 21 22 24 25 26 26 27 27 26 26 25 25 25 26 25
30 30 29 29 29 29 28 25 24 23 22 20 18 16 13 12 11 11 10 10 10 11 13 14 16 18 19 21 22 23 24 24 25 25 25 26 26 24 23 23 23 24 24
29 30 30 30 29 28 25 23 22 21 20 19 16 15 12 11 11 10 10 10 11 12 12 13 15 17 19 20 21 22 23 23 24 24 24 25 25 24 23 23 23 23 22
30 30 29 28 26 24 23 22 21 20 18 17 15 13 11 10 10 10 9 9 10 11 11 13 15 17 18 19 20 21 21 22 22 22 23 24 24 23 22 22 23 23 21
29 28 26 25 23 23 22 21 20 19 16 14 13 11 10 10 10 10 9 10 10 10 11 11 13 16 17 18 19 19 20 20 20 21 21 23 22 22 21 21 21 21 20
26 24 23 22 21 21 21 20 18 16 14 12 11 11 10 10 10 10 11 10 10 10 10 10 11 14 16 17 18 18 19 19 19 20 20 20 20 20 20 19 19 18 17
24 22 21 20 20 20 19 17 15 13 11 10 10 10 10 9 9 10 10 10 11 10 10 9 10 11 13 15 16 17 19 19 19 19 19 19 18 18 19 19 18 17 16
22 21 20 20 19 18 17 15 12 11 10 9 8 9 9 9 9 10 10 11 11 11 11 10 9 10 12 14 16 17 18 18 18 19 19 19 18 18 18 18 17 15 14
20 20 19 19 17 16 14 13 10 9 8 8 8 8 8 9 9 9 10 11 12 11 10 10 10 11 12 14 16 16 18 18 18 18 18 18 18 18 17 17 16 15 14
20 19 18 16 14 13 11 9 8 7 7 7 7 7 8 8 9 10 10 11 12 11 11 11 11 11 13 14 15 16 17 17 17 18 19 18 17 16 16 16 15 15 14
19 18 15 13 12 11 10 9 8 7 7 6 7 7 8 8 9 10 11 11 11 11 11 12 11 12 14 15 15 16 17 17 17 17 18 18 17 16 15 15 15 14 13
17 16 14 13 12 11 10 9 8 8 7 7 7 7 8 8 9 10 10 11 11 12 12 12 13 14 14 15 16 16 16 16 17 17 17 17 16 15 14 14 14 13 12
Wind_Direction
294 295 296 296 295 294 294 294 294 291 288 286 284 282 280 277 276 275 274 272 269 267 265 264 260 256 253 251 249 248 248 248 247 244 243 244 245 244 243 244 245 247 247
296 297 297 296 297 296 295 295 294 293 291 289 285 284 282 279 277 275 273 271 270 267 264 262 259 255 251 249 247 245 245 246 246 245 244 244 244 244 244 244 244 245 246
298 298 297 298 298 298 297 295 296 294 293 291 287 286 284 281 279 275 273 271 269 266 263 259 255 253 249 246 244 242 242 244 245 245 244 243 243 244 244 244 243 243 245
298 298 298 299 299 300 299 297 297 297 297 294 290 287 286 283 280 276 273 271 268 264 260 256 252 250 246 243 242 240 240 242 244 244 243 243 242 241 243 242 241 242 244
299 299 299 300 301 302 301 299 297 296 297 295 292 289 286 283 280 276 272 270 267 263 259 254 251 248 244 241 240 239 239 240 243 243 242 242 240 239 239 240 241 243 243
300 300 299 300 302 302 302 301 299 297 297 297 294 290 288 284 280 276 272 268 264 261 256 252 249 245 242 239 240 239 239 239 241 240 240 238 237 237 239 240 242 242 243
300 300 300 300 302 302 301 302 301 298 298 298 295 292 290 286 281 276 271 267 263 259 255 250 247 244 241 238 238 238 238 238 238 238 237 236 235 234 235 239 241 242 242
299 299 300 301 302 302 302 302 300 299 299 298 295 292 291 287 281 276 270 264 260 257 252 247 245 243 240 238 237 236 235 233 234 234 234 234 233 232 234 239 242 242 243
300 300 301 302 303 303 302 302 300 300 299 298 295 292 291 287 281 275 267 260 258 253 248 243 243 241 238 236 234 231 231 231 231 233 233 233 230 231 234 239 241 241 243
300 301 302 303 304 304 303 302 300 300 299 298 297 292 289 286 282 274 265 258 254 250 246 243 241 240 236 232 231 230 231 231 231 231 231 231 230 231 234 238 240 241 242
300 302 304 304 304 304 304 302 300 300 299 298 296 291 287 286 282 276 266 256 251 248 245 239 237 236 233 230 230 231 231 230 230 231 230 229 229 231 235 236 238 241 242
301 302 304 305 305 306 305 304 303 301 298 296 293 289 286 286 283 278 267 256 251 248 243 238 234 231 227 226 228 228 228 227 227 227 228 229 229 231 232 233 236 239 240
301 302 303 304 306 305 304 304 304 302 299 295 294 293 288 285 280 272 264 255 249 245 240 234 227 223 219 221 223 222 223 223 223 224 227 227 228 229 229 231 235 238 240
301 302 303 303 304 305 304 305 304 301 298 296 296 294 287 281 274 266 261 255 247 241 235 226 220 215 214 216 216 216 217 219 221 224 226 224 226 227 228 230 234 235 235
300 302 303 302 303 305 305 304 302 300 299 298 295 288 284 274 263 258 254 250 242 235 227 222 219 218 217 217 215 214 215 217 219 221 221 221 223 226 228 229 231 231 233
299 301 302 301 302 304 304 303 302 302 300 298 294 287 279 273 261 253 250 247 238 231 225 222 221 219 220 220 217 216 216 218 219 219 221 222 222 225 228 229 228 228 231
301 301 301 301 302 303 303 303 301 300 298 294 288 281 274 265 251 243 245 243 237 232 228 223 219 217 217 218 217 216 217 218 217 218 219 219 221 224 225 227 227 227 228
300 301 301 300 301 302 303 303 304 301 296 289 282 276 266 256 243 238 241 238 233 232 227 221 216 214 213 213 212 213 213 215 217 217 217 217 219 221 222 223 224 225 229
300 300 301 301 300 301 302 302 302 300 296 287 275 266 256 250 242 238 236 230 223 219 217 216 212 209 208 208 208 210 212 214 215 214 213 213 215 217 217 219 220 223 226
300 301 300 299 299 301 302 301 299 296 290 280 268 256 249 247 242 235 227 221 217 214 213 210 208 207 206 206 207 207 208 209 209 208 208 208 210 212 212 213 216 218 223
299 299 298 299 302 303 303 301 297 293 284 271 262 250 239 236 232 224 221 218 215 212 209 204 203 202 201 201 201 202 202 203 203 200 198 200 202 203 204 207 210 213 217
296 296 298 300 302 303 301 298 292 286 279 266 253 243 233 227 221 216 213 210 207 205 204 200 194 193 194 192 192 194 195 196 195 192 191 193 196 199 201 202 205 210 215
296 297 298 297 297 298 298 294 287 282 278 265 249 240 232 223 218 214 208 204 199 196 196 190 182 181 183 184 183 185 188 190 190 189 190 192 195 196 197 199 201 206 213
294 296 297 296 295 295 297 295 290 284 278 261 242 238 231 221 213 206 200 196 193 190 186 181 176 175 178 179 179 180 182 184 183 184 187 188 189 190 192 194 198 203 209
293 292 291 290 291 291 290 289 287 282 276 258 236 228 220 208 200 195 193 193 191 187 184 182 182 183 185 185 181 179 178 178 178 181 185 186 187 186 188 191 196 199 204
292 288 284 282 281 283 282 279 277 275 268 244 219 211 206 199 194 191 192 191 188 185 185 185 183 181 181 180 179 178 179 179 178 180 183 186 188 189 190 191 193 196 200
Height
5590 5585 5581 5576 5571 5567 5563 5558 5554 5551 5547 5544 5542 5539 5538 5536 5534 5533 5533 5532 5532 5533 5534 5535 5537 5540 5544 5548 5551 5556 5561 5565 5571 5579 5584 5589 5592 5597 5601 5606 5611 5617 5622
5578 5574 5569 5564 5559 5555 5550 5546 5541 5537 5534 5530 5527 5524 5522 5520 5518 5517 5516 5516 5516 5517 5519 5520 5522 5525 5530 5534 5538 5544 5549 5554 5559 5565 5572 5576 5581 5585 5589 5594 5599 5605 5609
5567 5562 5557 5552 5547 5543 5538 5533 5529 5524 5521 5517 5514 5510 5507 5505 5502 5501 5500 5500 5500 5502 5504 5506 5509 5512 5517 5521 5526 5532 5537 5542 5546 5552 5559 5564 5569 5573 5577 5582 5587 5593 5598
5555 5550 5545 5541 5535 5531 5526 5521 5517 5512 5508 5504 5500 5497 5493 5490 5488 5486 5485 5485 5486 5487 5489 5492 5496 5499 5504 5509 5514 5520 5525 5530 5535 5540 5546 5552 5557 5562 5566 5572 5576 5581 5587
5543 5538 5534 5529 5524 5519 5514 5510 5506 5501 5497 5492 5488 5484 5481 5477 5474 5473 5472 5472 5472 5474 5476 5480 5484 5488 5492 5497 5503 5508 5514 5519 5524 5529 5535 5541 5546 5551 5557 5561 5566 5571 5576
5532 5528 5523 5518 5514 5509 5504 5499 5495 5490 5486 5481 5477 5472 5469 5465 5462 5460 5459 5459 5461 5463 5465 5469 5473 5477 5482 5487 5492 5498 5504 5508 5514 5519 5524 5531 5537 5542 5547 5551 5556 5561 5567
5522 5518 5513 5508 5504 5499 5494 5489 5484 5480 5475 5471 5466 5461 5457 5454 5451 5449 5448 5449 5450 5453 5455 5459 5463 5467 5471 5477 5482 5487 5493 5498 5503 5509 5515 5521 5527 5533 5538 5543 5548 5553 5558
5512 5508 5504 5499 5494 5489 5484 5479 5475 5470 5466 5461 5456 5452 5448 5445 5442 5440 5439 5440 5441 5443 5446 5450 5454 5458 5463 5468 5473 5478 5483 5489 5494 5500 5506 5512 5518 5524 5529 5535 5539 5544 5549
5503 5498 5494 5489 5484 5479 5475 5470 5466 5461 5457 5452 5448 5444 5441 5438 5435 5433 5432 5432 5434 5436 5439 5442 5446 5450 5455 5459 5464 5470 5475 5481 5486 5492 5498 5504 5510 5516 5521 5526 5531 5535 5540
5494 5489 5484 5479 5475 5470 5466 5461 5457 5453 5449 5445 5441 5437 5434 5431 5429 5427 5426 5426 5428 5430 5433 5435 5439 5442 5447 5452 5457 5462 5468 5474 5479 5485 5491 5497 5502 5508 5513 5518 5523 5528 5532
5486 5481 5476 5471 5466 5461 5457 5453 5449 5445 5441 5437 5434 5431 5428 5426 5424 5422 5421 5422 5423 5425 5427 5429 5433 5436 5440 5445 5451 5456 5463 5468 5474 5479 5485 5490 5496 5501 5507 5511 5516 5521 5525
5478 5473 5468 5463 5458 5453 5449 5446 5442 5438 5434 5431 5428 5426 5424 5421 5419 5418 5417 5417 5418 5420 5422 5424 5428 5431 5436 5441 5446 5451 5456 5462 5468 5474 5480 5485 5490 5496 5500 5504 5509 5513 5517
5470 5465 5461 5456 5451 5447 5443 5439 5435 5432 5428 5425 5423 5421 5420 5417 5415 5414 5414 5414 5414 5416 5418 5420 5423 5427 5431 5436 5441 5446 5450 5456 5462 5468 5474 5480 5485 5489 5493 5498 5502 5506 5510
5462 5458 5454 5450 5446 5441 5437 5433 5429 5426 5423 5421 5418 5417 5415 5414 5413 5412 5412 5412 5412 5413 5415 5418 5421 5424 5428 5433 5437 5441 5446 5452 5457 5463 5469 5474 5478 5483 5488 5492 5496 5500 5503
5455 5451 5447 5443 5440 5436 5432 5427 5424 5421 5417 5416 5414 5412 5411 5411 5410 5409 5409 5410 5410 5412 5413 5416 5418 5421 5425 5429 5433 5437 5442 5447 5452 5458 5463 5468 5473 5478 5482 5486 5490 5494 5498
5448 5444 5441 5437 5433 5429 5426 5422 5418 5415 5413 5410 5409 5408 5407 5407 5406 5406 5406 5407 5408 5410 5411 5414 5416 5419 5422 5426 5430 5434 5439 5443 5448 5453 5458 5463 5468 5472 5477 5480 5484 5488 5492
5440 5437 5434 5430 5426 5423 5419 5417 5414 5412 5408 5406 5404 5403 5403 5403 5403 5403 5404 5405 5406 5407 5409 5411 5413 5416 5419 5422 5426 5431 5435 5440 5444 5449 5454 5458 5463 5467 5471 5475 5479 5483 5487
5433 5430 5426 5423 5420 5416 5414 5411 5408 5406 5404 5402 5400 5400 5400 5400 5400 5401 5401 5402 5404 5405 5406 5408 5410 5413 5416 5419 5423 5427 5431 5435 5440 5444 5449 5453 5458 5462 5466 5470 5474 5478 5482
5425 5422 5419 5416 5413 5411 5408 5405 5403 5400 5399 5398 5397 5396 5396 5396 5397 5398 5398 5400 5401 5402 5404 5405 5407 5410 5413 5416 5420 5424 5427 5431 5435 5440 5444 5449 5453 5457 5462 5466 5470 5474 5478
5419 5416 5413 5410 5408 5405 5402 5399 5397 5395 5394 5393 5393 5393 5393 5394 5394 5395 5396 5397 5399 5401 5402 5403 5405 5407 5410 5413 5416 5420 5424 5428 5432 5436 5441 5445 5449 5454 5458 5462 5466 5470 5474
5413 5410 5407 5405 5402 5400 5397 5394 5392 5391 5390 5389 5390 5390 5390 5391 5391 5392 5394 5395 5397 5399 5400 5402 5403 5405 5408 5411 5414 5418 5422 5426 5429 5433 5438 5442 5447 5451 5455 5459 5463 5466 5470
5407 5404 5402 5399 5397 5395 5392 5390 5388 5387 5386 5386 5386 5387 5387 5388 5389 5390 5391 5393 5395 5397 5399 5400 5402 5404 5406 5409 5413 5416 5420 5424 5427 5431 5436 5440 5444 5449 5453 5456 5460 5463 5467
5401 5399 5396 5394 5392 5390 5388 5386 5385 5384 5383 5383 5383 5384 5384 5385 5386 5388 5389 5391 5393 5395 5397 5399 5401 5403 5406 5409 5412 5415 5419 5423 5426 5430 5435 5439 5443 5447 5451 5454 5458 5461 5464
5395 5393 5391 5389 5388 5386 5385 5383 5382 5381 5381 5380 5381 5381 5382 5383 5384 5385 5387 5389 5391 5394 5396 5398 5401 5403 5406 5409 5412 5415 5418 5422 5425 5429 5434 5438 5442 5445 5449 5452 5456 5459 5462
5389 5388 5386 5385 5384 5382 5381 5380 5379 5379 5378 5378 5378 5378 5379 5380 5382 5384 5385 5388 5390 5392 5395 5398 5400 5403 5406 5409 5412 5415 5418 5422 5425 5429 5433 5437 5440 5444 5447 5451 5454 5457 5459
5384 5383 5382 5381 5380 5379 5378 5377 5376 5376 5375 5375 5376 5376 5378 5379 5380 5382 5384 5387 5389 5391 5394 5397 5400 5402 5405 5408 5412 5415 5419 5422 5425 5429 5432 5436 5439 5443 5446 5449 5452 5455 5457